Starlink 35110

operational
NORAD ID: 65539 Int'l Des: 2025-200 Owner: SPXS Country: US Constellation: starlink
LEOCIRCULARRETROGRADE

About Starlink 35110

Description loading...

Live Position

Loading 3D Globe...

Upcoming Passes

Altitude History

Altitude vs Time

uPlot chart will show altitude changes over time

Two-Line Element Set

1 65539U 25200V 25304.72751211 .00077905 00000-0 19836-2 0 9994
2 65539 97.6022 12.4858 0002971 76.1199 284.0377 15.39276856 9716
Epoch: Oct 31, 2025 • Age: 16 hours

Current Status

Altitude 453.6 km
Velocity 7.64 km/s
Sub-Earth Point -13.38°S, 160.99°W
Launch Date Sep 6, 2025
Age 0.1 years
Type internet

Technical Details

Classification Payload
Mass 575.00 kg
Dry Mass 530.00 kg
Total Mass 575.00 kg
Length 0.30 m
Diameter 4.10 m
Span 29.00 m
Shape Box + pan
Manufacturer SPXS
Bus Type Starlink V2MO
Phase Status In Orbit
Owner/State SPXS/US

Large Constellations

Loading constellations...